Time,TemperatureF,DewpointF,PressureIn,WindDirection,WindDirectionDegrees,WindSpeedMPH,WindSpeedGustMPH,Humidity,HourlyPrecipIn,Conditions,Clouds,dailyrainin,SoftwareType,DateUTC
2013-04-23 00:10:00,41.8,36.0,30.45,ENE,76,1.0,5.0,79,0.00,,,0.00,weatherlink.com 1.10,2013-04-23 04:10:00,
2013-04-23 00:25:00,42.0,36.0,30.45,ENE,74,3.0,4.0,78,0.00,,,0.00,weatherlink.com 1.10,2013-04-23 04:25:00,
2013-04-23 00:40:00,42.0,36.0,30.44,ENE,63,3.0,4.0,78,0.00,,,0.00,weatherlink.com 1.10,2013-04-23 04:40:00,
2013-04-23 00:55:00,42.0,36.0,30.44,ENE,76,3.0,5.0,79,0.00,,,0.00,weatherlink.com 1.10,2013-04-23 04:55:00,
2013-04-23 01:10:00,41.8,36.0,30.43,ENE,63,0.0,5.0,80,0.00,,,0.00,weatherlink.com 1.10,2013-04-23 05:10:00,
2013-04-23 01:25:00,41.7,36.0,30.43,ENE,63,0.0,4.0,81,0.00,,,0.00,weatherlink.com 1.10,2013-04-23 05:25:00,
2013-04-23 01:40:00,42.0,37.0,30.43,East,93,1.0,3.0,82,0.00,,,0.00,weatherlink.com 1.10,2013-04-23 05:40:00,
2013-04-23 01:55:00,42.4,37.0,30.42,East,85,2.0,4.0,82,0.00,,,0.00,weatherlink.com 1.10,2013-04-23 05:55:00,
2013-04-23 02:10:00,42.8,38.0,30.41,East,89,0.0,5.0,82,0.00,,,0.00,weatherlink.com 1.10,2013-04-23 06:10:00,
2013-04-23 02:25:00,43.0,38.0,30.41,ENE,61,3.0,8.0,82,0.00,,,0.00,weatherlink.com 1.10,2013-04-23 06:25:00,
2013-04-23 02:40:00,43.2,38.0,30.40,East,96,3.0,8.0,82,0.00,,,0.00,weatherlink.com 1.10,2013-04-23 06:40:00,
2013-04-23 02:55:00,43.3,39.0,30.40,East,99,2.0,7.0,83,0.00,,,0.00,weatherlink.com 1.10,2013-04-23 06:55:00,
2013-04-23 03:10:00,43.3,39.0,30.39,East,86,6.0,8.0,83,0.00,,,0.00,weatherlink.com 1.10,2013-04-23 07:10:00,
2013-04-23 03:25:00,43.3,39.0,30.39,NE,46,3.0,5.0,83,0.00,,,0.00,weatherlink.com 1.10,2013-04-23 07:25:00,
2013-04-23 03:40:00,43.3,39.0,30.39,ENE,69,1.0,7.0,83,0.00,,,0.00,weatherlink.com 1.10,2013-04-23 07:40:00,
2013-04-23 03:55:00,43.3,39.0,30.38,East,92,5.0,9.0,83,0.00,,,0.00,weatherlink.com 1.10,2013-04-23 07:55:00,
2013-04-23 04:10:00,43.2,38.0,30.38,ENE,71,1.0,9.0,83,0.00,,,0.00,weatherlink.com 1.10,2013-04-23 08:10:00,
2013-04-23 04:25:00,43.1,38.0,30.38,ENE,69,2.0,7.0,82,0.00,,,0.00,weatherlink.com 1.10,2013-04-23 08:25:00,
2013-04-23 04:41:00,43.0,38.0,30.37,ENE,59,4.0,8.0,82,0.00,,,0.00,weatherlink.com 1.10,2013-04-23 08:41:00,
2013-04-23 04:56:00,42.9,38.0,30.37,NE,50,0.0,7.0,83,0.00,,,0.00,weatherlink.com 1.10,2013-04-23 08:56:00,
2013-04-23 05:11:00,42.7,38.0,30.37,ENE,78,0.0,8.0,82,0.00,,,0.00,weatherlink.com 1.10,2013-04-23 09:11:00,
2013-04-23 05:26:00,42.7,38.0,30.36,East,90,3.0,8.0,82,0.00,,,0.00,weatherlink.com 1.10,2013-04-23 09:26:00,
2013-04-23 05:41:00,42.6,37.0,30.36,SE,126,2.0,9.0,81,0.00,,,0.00,weatherlink.com 1.10,2013-04-23 09:41:00,
2013-04-23 05:56:00,42.5,37.0,30.35,ENE,71,3.0,9.0,82,0.00,,,0.00,weatherlink.com 1.10,2013-04-23 09:56:00,
2013-04-23 06:11:00,42.5,37.0,30.35,East,91,2.0,7.0,82,0.00,,,0.00,weatherlink.com 1.10,2013-04-23 10:11:00,
2013-04-23 06:26:00,42.5,37.0,30.35,ENE,65,3.0,7.0,82,0.00,,,0.00,weatherlink.com 1.10,2013-04-23 10:26:00,
2013-04-23 06:41:00,42.5,37.0,30.35,ESE,114,7.0,10.0,81,0.00,,,0.00,weatherlink.com 1.10,2013-04-23 10:41:00,
2013-04-23 06:56:00,42.6,37.0,30.35,East,80,0.0,10.0,81,0.00,,,0.00,weatherlink.com 1.10,2013-04-23 10:56:00,
2013-04-23 07:11:00,42.7,37.0,30.36,NE,49,8.0,10.0,81,0.00,,,0.00,weatherlink.com 1.10,2013-04-23 11:11:00,
2013-04-23 07:26:00,42.8,37.0,30.36,East,79,3.0,11.0,80,0.00,,,0.00,weatherlink.com 1.10,2013-04-23 11:26:00,
2013-04-23 07:41:00,42.7,36.0,30.36,ENE,78,3.0,10.0,78,0.00,,,0.00,weatherlink.com 1.10,2013-04-23 11:41:00,
2013-04-23 07:56:00,42.7,36.0,30.36,ENE,72,4.0,11.0,77,0.00,,,0.00,weatherlink.com 1.10,2013-04-23 11:56:00,
2013-04-23 08:11:00,42.9,36.0,30.36,NE,46,9.0,12.0,76,0.00,,,0.00,weatherlink.com 1.10,2013-04-23 12:11:00,
2013-04-23 08:26:00,42.9,36.0,30.36,East,81,2.0,12.0,76,0.00,,,0.00,weatherlink.com 1.10,2013-04-23 12:26:00,
2013-04-23 08:41:00,43.4,36.0,30.35,NE,55,3.0,8.0,76,0.00,,,0.00,weatherlink.com 1.10,2013-04-23 12:41:00,
2013-04-23 08:56:00,43.8,36.0,30.35,ENE,73,3.0,16.0,75,0.00,,,0.00,weatherlink.com 1.10,2013-04-23 12:56:00,
2013-04-23 09:11:00,44.3,36.0,30.34,ENE,67,5.0,10.0,73,0.00,,,0.00,weatherlink.com 1.10,2013-04-23 13:11:00,
2013-04-23 09:26:00,45.3,37.0,30.34,East,84,7.0,11.0,73,0.00,,,0.00,weatherlink.com 1.10,2013-04-23 13:26:00,
2013-04-23 09:41:00,47.2,37.0,30.33,NE,38,4.0,8.0,69,0.00,,,0.00,weatherlink.com 1.10,2013-04-23 13:41:00,
2013-04-23 09:56:00,48.3,39.0,30.32,ESE,115,4.0,10.0,70,0.00,,,0.00,weatherlink.com 1.10,2013-04-23 13:56:00,
2013-04-23 10:12:00,48.2,37.0,30.33,ESE,117,7.0,10.0,66,0.00,,,0.00,weatherlink.com 1.10,2013-04-23 14:12:00,
2013-04-23 10:27:00,48.3,38.0,30.32,East,83,6.0,8.0,67,0.00,,,0.00,weatherlink.com 1.10,2013-04-23 14:27:00,
2013-04-23 10:42:00,49.1,38.0,30.32,East,85,3.0,8.0,67,0.00,,,0.00,weatherlink.com 1.10,2013-04-23 14:42:00,
2013-04-23 10:57:00,49.7,39.0,30.31,ENE,70,3.0,8.0,68,0.00,,,0.00,weatherlink.com 1.10,2013-04-23 14:57:00,
2013-04-23 11:12:00,50.0,39.0,30.31,East,81,6.0,8.0,66,0.00,,,0.00,weatherlink.com 1.10,2013-04-23 15:12:00,
2013-04-23 11:27:00,50.1,39.0,30.30,ENE,76,4.0,11.0,66,0.00,,,0.00,weatherlink.com 1.10,2013-04-23 15:27:00,
2013-04-23 11:42:00,50.7,39.0,30.29,East,85,3.0,9.0,65,0.00,,,0.00,weatherlink.com 1.10,2013-04-23 15:42:00,
2013-04-23 11:57:00,53.2,44.0,30.29,ENE,67,2.0,7.0,71,0.00,,,0.00,weatherlink.com 1.10,2013-04-23 15:57:00,
2013-04-23 12:12:00,53.2,42.0,30.28,NE,40,3.0,7.0,66,0.00,,,0.00,weatherlink.com 1.10,2013-04-23 16:12:00,
2013-04-23 12:27:00,54.1,42.0,30.27,ENE,61,1.0,8.0,65,0.00,,,0.00,weatherlink.com 1.10,2013-04-23 16:27:00,
2013-04-23 12:42:00,54.1,41.0,30.26,East,82,3.0,9.0,62,0.00,,,0.00,weatherlink.com 1.10,2013-04-23 16:42:00,
2013-04-23 12:57:00,54.8,42.0,30.25,NNE,28,3.0,9.0,63,0.00,,,0.00,weatherlink.com 1.10,2013-04-23 16:57:00,
2013-04-23 13:12:00,55.2,43.0,30.24,ENE,62,3.0,11.0,63,0.00,,,0.00,weatherlink.com 1.10,2013-04-23 17:12:00,
2013-04-23 13:27:00,56.1,44.0,30.23,ENE,78,5.0,8.0,64,0.00,,,0.00,weatherlink.com 1.10,2013-04-23 17:27:00,
2013-04-23 13:42:00,55.7,43.0,30.23,ENE,73,3.0,8.0,63,0.00,,,0.00,weatherlink.com 1.10,2013-04-23 17:42:00,
2013-04-23 13:57:00,55.7,43.0,30.24,NE,44,1.0,8.0,62,0.00,,,0.00,weatherlink.com 1.10,2013-04-23 17:57:00,
2013-04-23 14:12:00,55.5,43.0,30.23,East,85,3.0,7.0,63,0.00,,,0.00,weatherlink.com 1.10,2013-04-23 18:12:00,
2013-04-23 14:27:00,55.7,43.0,30.24,NNW,342,0.0,6.0,63,0.00,,,0.00,weatherlink.com 1.10,2013-04-23 18:27:00,
2013-04-23 14:42:00,56.6,45.0,30.23,SE,132,3.0,8.0,66,0.00,,,0.00,weatherlink.com 1.10,2013-04-23 18:42:00,
2013-04-23 14:57:00,56.5,43.0,30.24,NNW,347,0.0,3.0,62,0.00,,,0.00,weatherlink.com 1.10,2013-04-23 18:57:00,
2013-04-23 15:12:00,56.4,43.0,30.23,East,79,2.0,5.0,62,0.00,,,0.00,weatherlink.com 1.10,2013-04-23 19:12:00,
2013-04-23 15:27:00,56.9,44.0,30.22,SSE,155,0.0,6.0,63,0.00,,,0.00,weatherlink.com 1.10,2013-04-23 19:27:00,
2013-04-23 15:42:00,56.8,44.0,30.22,East,92,0.0,5.0,62,0.00,,,0.00,weatherlink.com 1.10,2013-04-23 19:42:00,
2013-04-23 15:57:00,56.9,44.0,30.22,ENE,77,3.0,5.0,62,0.00,,,0.00,weatherlink.com 1.10,2013-04-23 19:57:00,
2013-04-23 16:12:00,57.2,44.0,30.20,SE,126,4.0,8.0,61,0.00,,,0.00,weatherlink.com 1.10,2013-04-23 20:12:00,
2013-04-23 16:27:00,57.2,44.0,30.19,East,98,2.0,11.0,62,0.00,,,0.00,weatherlink.com 1.10,2013-04-23 20:27:00,
2013-04-23 16:42:00,57.4,45.0,30.18,ENE,72,1.0,11.0,63,0.00,,,0.00,weatherlink.com 1.10,2013-04-23 20:42:00,
2013-04-23 16:57:00,57.1,45.0,30.19,East,87,9.0,10.0,64,0.00,,,0.00,weatherlink.com 1.10,2013-04-23 20:57:00,
2013-04-23 17:12:00,57.1,45.0,30.19,East,99,10.0,10.0,65,0.00,,,0.00,weatherlink.com 1.10,2013-04-23 21:12:00,
2013-04-23 17:27:00,56.7,45.0,30.18,East,84,7.0,9.0,65,0.00,,,0.00,weatherlink.com 1.10,2013-04-23 21:27:00,
2013-04-23 17:42:00,56.8,45.0,30.17,ENE,78,4.0,9.0,66,0.00,,,0.00,weatherlink.com 1.10,2013-04-23 21:42:00,
2013-04-23 17:58:00,56.0,45.0,30.17,ENE,73,3.0,9.0,66,0.00,,,0.00,weatherlink.com 1.10,2013-04-23 21:58:00,
2013-04-23 18:13:00,55.3,45.0,30.16,ESE,114,3.0,10.0,68,0.00,,,0.00,weatherlink.com 1.10,2013-04-23 22:13:00,
2013-04-23 18:28:00,54.5,45.0,30.15,ESE,108,4.0,10.0,70,0.00,,,0.00,weatherlink.com 1.10,2013-04-23 22:28:00,
2013-04-23 18:43:00,53.8,45.0,30.15,East,94,10.0,13.0,71,0.00,,,0.00,weatherlink.com 1.10,2013-04-23 22:43:00,
2013-04-23 18:58:00,52.4,44.0,30.15,East,101,6.0,9.0,72,0.00,,,0.00,weatherlink.com 1.10,2013-04-23 22:58:00,
2013-04-23 19:13:00,51.9,44.0,30.16,ENE,64,3.0,4.0,74,0.00,,,0.00,weatherlink.com 1.10,2013-04-23 23:13:00,
2013-04-23 19:28:00,51.7,44.0,30.17,ESE,102,1.0,7.0,75,0.00,,,0.00,weatherlink.com 1.10,2013-04-23 23:28:00,
2013-04-23 19:43:00,51.2,44.0,30.17,East,90,5.0,8.0,76,0.00,,,0.00,weatherlink.com 1.10,2013-04-23 23:43:00,
2013-04-23 19:58:00,50.8,44.0,30.17,East,94,7.0,7.0,77,0.00,,,0.00,weatherlink.com 1.10,2013-04-23 23:58:00,
2013-04-23 20:13:00,50.5,44.0,30.17,SE,135,4.0,8.0,78,0.00,,,0.00,weatherlink.com 1.10,2013-04-24 00:13:00,
2013-04-23 20:28:00,50.4,44.0,30.17,ESE,109,0.0,2.0,79,0.00,,,0.00,weatherlink.com 1.10,2013-04-24 00:28:00,
2013-04-23 20:43:00,50.1,44.0,30.16,East,84,2.0,5.0,80,0.00,,,0.00,weatherlink.com 1.10,2013-04-24 00:43:00,
2013-04-23 20:58:00,49.9,44.0,30.16,East,90,3.0,5.0,81,0.00,,,0.00,weatherlink.com 1.10,2013-04-24 00:58:00,
2013-04-23 21:13:00,49.7,44.0,30.16,East,89,0.0,6.0,81,0.00,,,0.00,weatherlink.com 1.10,2013-04-24 01:13:00,
2013-04-23 21:28:00,49.6,44.0,30.17,East,87,0.0,2.0,81,0.00,,,0.00,weatherlink.com 1.10,2013-04-24 01:28:00,
2013-04-23 21:43:00,49.5,44.0,30.17,East,87,0.0,1.0,82,0.00,,,0.00,weatherlink.com 1.10,2013-04-24 01:43:00,
2013-04-23 21:58:00,49.4,44.0,30.16,East,87,0.0,2.0,81,0.00,,,0.00,weatherlink.com 1.10,2013-04-24 01:58:00,
2013-04-23 22:13:00,49.1,44.0,30.16,East,87,0.0,0.0,82,0.00,,,0.00,weatherlink.com 1.10,2013-04-24 02:13:00,
2013-04-23 22:43:00,47.8,43.0,30.15,East,87,0.0,0.0,82,0.00,,,0.00,weatherlink.com 1.10,2013-04-24 02:43:00,
2013-04-23 22:58:00,46.9,42.0,30.15,East,87,0.0,0.0,83,0.00,,,0.00,weatherlink.com 1.10,2013-04-24 02:58:00,
2013-04-23 23:13:00,45.6,41.0,30.15,East,87,0.0,0.0,85,0.00,,,0.00,weatherlink.com 1.10,2013-04-24 03:13:00,
2013-04-23 23:28:00,44.6,41.0,30.15,East,87,0.0,0.0,87,0.00,,,0.00,weatherlink.com 1.10,2013-04-24 03:28:00,
2013-04-23 23:43:00,43.8,41.0,30.14,East,87,0.0,0.0,88,0.00,,,0.00,weatherlink.com 1.10,2013-04-24 03:43:00,